Location: Izdebno
(52.6670°N, 16.2170°E)
Time: 04:24:16
(UTC+02:00)

SR - Pass Details

Date: 23 February 2024
Orbit: 577 x 862 km, 66.7° (Epoch: 22 April)

Event Time Altitude Azimuth Distance (km) Brightness Sun altitude
Rises 16:02:02 0° 212° (SSW) 3,439 ? 10.2°
Reaches altitude 10° 16:04:32 10° 211° (SSW) 2,501 ? 9.9°
Maximum altitude 16:10:21 79° 127° (SE) 869 ? 9.1°
Drops below altitude 10° 16:15:58 10° 41° (NE) 2,413 ? 8.4°
Sets 16:18:21 0° 41° (NE) 3,311 ? 8.1°
